This is the latest recevied weather packets stored in our database for station/object KG4AGD. If no packets are shown the sender has not sent any weather packets the latest 10 day(s).
| Time | Temp. | Humidity | Pressure | Rain* | Wind** | Luminosity | Snow |
|---|---|---|---|---|---|---|---|
| 1777584600 | 22.78° C | 57% | 1010.1 hPa | 8.89 mm | - | - | - |
| 1777584298 | 22.78° C | 57% | 1010.1 hPa | 8.89 mm | - | - | - |
| 1777583996 | 22.22° C | 60% | 1010.1 hPa | 8.89 mm | - | - | - |
| 1777583694 | 22.22° C | 58% | 1010.1 hPa | 8.89 mm | - | - | - |
| 1777583391 | 22.22° C | 60% | 1010.1 hPa | 8.89 mm | - | - | - |
| 1777583089 | 22.22° C | 63% | 1010.4 hPa | 8.89 mm | - | - | - |
| 1777582787 | 22.22° C | 61% | 1010.1 hPa | 8.89 mm | - | - | - |
| 1777582485 | 21.67° C | 63% | 1010.4 hPa | 8.89 mm | - | - | - |
| 1777582183 | 21.67° C | 62% | 1010.4 hPa | 8.89 mm | - | - | - |
| 1777581881 | 21.67° C | 61% | 1010.4 hPa | 8.89 mm | - | - | - |
| 1777581579 | 21.67° C | 64% | 1010.4 hPa | 8.89 mm | - | - | - |
| 1777581276 | 21.67° C | 60% | 1010.4 hPa | 8.89 mm | - | - | - |
| 1777580974 | 21.67° C | 61% | 1010.4 hPa | 8.89 mm | - | - | - |
| 1777580672 | 21.67° C | 60% | 1010.4 hPa | 8.89 mm | - | - | - |
| 1777580369 | 22.22° C | 58% | 1010.4 hPa | 8.89 mm | - | - | - |
| 1777580067 | 22.22° C | 57% | 1010.4 hPa | 8.89 mm | - | - | - |
| 1777579765 | 22.22° C | 55% | 1010.4 hPa | 8.89 mm | - | - | - |
| 1777579463 | 22.78° C | 59% | 1010.4 hPa | 8.89 mm | - | - | - |
| 1777579160 | 23.33° C | 59% | 1010.4 hPa | 8.89 mm | - | - | - |
| 1777578859 | 22.78° C | 59% | 1010.4 hPa | 8.89 mm | - | - | - |
| 1777578557 | 23.33° C | 54% | 1010.4 hPa | 8.89 mm | - | - | - |
| 1777578254 | 22.78° C | 52% | 1010.4 hPa | 8.89 mm | - | - | - |
| 1777577952 | 22.22° C | 60% | 1010.4 hPa | 8.89 mm | - | - | - |
| 1777577650 | 23.89° C | 53% | 1010.4 hPa | 8.89 mm | - | - | - |
| 1777577348 | 23.89° C | 61% | 1010.4 hPa | 8.89 mm | - | - | - |
* Rain since midnight (hover to see other rain measurements)
** Current wind speed in m/s (hover to see current wind gust speed)